EW0121 Weather Reports


Display with metric or nautical units.
time (UTC)temp
F
wind
direction
speed
MPH
gust
MPH
rain 1hr
in
rain 24hr
in
rain mn
in
humidity
%
barometer
mb
20260508003018 48 37 0.0 3.0 0.00 0.00 0.00 77 1016.3
20260508001531 48 86 0.0 3.0 0.00 0.00 0.00 76 1016.5
20260508000025 48 78 2.0 3.0 0.00 0.00 0.00 76 1016.6
20260507234528 49 86 0.0 2.0 0.00 0.00 0.00 74 1016.7
20260507233017 49 120 1.0 4.0 0.00 0.00 0.00 74 1016.6
20260507231523 48 81 0.0 4.0 0.00 0.00 0.00 73 1016.6
20260507230026 49 98 0.0 7.0 0.00 0.00 0.00 72 1016.7
20260507224527 49 72 1.0 4.0 0.00 0.00 0.00 71 1016.8
20260507223026 48 84 1.0 3.0 0.00 0.00 0.00 71 1016.8
20260507221518 48 56 0.0 3.0 0.00 0.00 0.00 71 1016.8
20260507220024 49 73 0.0 2.0 0.00 0.00 0.00 70 1016.9
20260507214527 49 90 0.0 2.0 0.00 0.00 0.00 69 1017.0
20260507213029 50 81 0.0 2.0 0.00 0.00 0.00 68 1016.9
20260507211526 50 54 0.0 3.0 0.00 0.00 0.00 66 1016.9
20260507210025 51 97 0.0 2.0 0.00 0.00 0.00 66 1016.5
20260507204523 51 44 1.0 3.0 0.00 0.00 0.00 69 1016.5
20260507203039 51 113 0.0 2.0 0.00 0.00 0.00 70 1016.4
20260507201530 51 87 0.0 2.0 0.00 0.00 0.00 70 1016.4
20260507200028 51 67 0.0 1.0 0.00 0.00 0.00 69 1016.2
20260507194527 52 67 0.0 1.0 0.00 0.00 0.00 68 1016.0
20260507193003 53 69 0.0 2.0 0.00 0.00 0.00 64 1015.9
20260507191515 54 96 0.0 2.0 0.00 0.00 0.00 61 1015.8
20260507190014 55 74 0.0 2.0 0.00 0.00 0.00 60 1015.7
20260507184510 56 109 0.0 1.0 0.00 0.00 0.00 59 1015.6
20260507183013 56 111 0.0 1.0 0.00 0.00 0.00 60 1015.6
20260507181510 57 230 0.0 1.0 0.00 0.00 0.00 60 1015.6
20260507180017 57 230 0.0 1.0 0.00 0.00 0.00 57 1015.5
20260507174523 57 219 0.0 2.0 0.00 0.00 0.00 56 1015.5
20260507173034 58 142 0.0 3.0 0.00 0.00 0.00 56 1015.6
20260507171522 58 156 0.0 2.0 0.00 0.00 0.00 55 1015.5
20260507170007 58 111 0.0 3.0 0.00 0.00 0.00 55 1015.4
20260507164518 58 240 1.0 6.0 0.00 0.00 0.00 57 1015.4
20260507163016 59 195 1.0 6.0 0.00 0.00 0.00 57 1015.6
20260507161516 59 20 1.0 6.0 0.00 0.00 0.00 56 1015.6
20260507160016 58 113 0.0 4.0 0.00 0.00 0.00 57 1015.8
20260507154510 58 33 1.0 4.0 0.00 0.00 0.00 57 1015.7
20260507153018 59 75 0.0 6.0 0.00 0.00 0.00 57 1015.7
20260507151518 59 168 1.0 4.0 0.00 0.00 0.00 59 1015.7
20260507150033 60 43 0.0 4.0 0.00 0.00 0.00 55 1015.7
20260507144522 61 114 1.0 8.0 0.00 0.00 0.00 52 1015.8
20260507143016 63 120 1.0 6.0 0.00 0.00 0.00 50 1015.9
20260507141521 62 153 1.0 8.0 0.00 0.00 0.00 50 1016.0
20260507140021 64 185 2.0 7.0 0.00 0.00 0.00 47 1015.9
20260507134520 63 76 1.0 8.0 0.00 0.00 0.00 49 1015.9
20260507133021 61 360 1.0 7.0 0.00 0.00 0.00 50 1015.9
20260507131514 61 125 1.0 6.0 0.00 0.00 0.00 49 1016.1
20260507130012 62 266 0.0 5.0 0.00 0.00 0.00 49 1016.1
20260507124506 60 90 1.0 4.0 0.00 0.00 0.00 48 1016.2
20260507123014 61 112 2.0 8.0 0.00 0.00 0.00 45 1016.2
20260507121517 62 135 2.0 7.0 0.00 0.00 0.00 43 1016.1
20260507120018 63 55 2.0 8.0 0.00 0.00 0.00 43 1016.1
20260507114517 62 5 2.0 6.0 0.00 0.00 0.00 44 1016.1
20260507113011 65 51 2.0 8.0 0.00 0.00 0.00 45 1016.1
20260507111514 64 234 1.0 3.0 0.00 0.00 0.00 46 1016.2
20260507110018 64 161 2.0 7.0 0.00 0.00 0.00 48 1016.5
20260507104520 62 119 2.0 5.0 0.00 0.00 0.00 51 1016.5
20260507103021 60 127 2.0 6.0 0.00 0.00 0.00 53 1016.7
20260507101532 61 141 2.0 5.0 0.00 0.00 0.00 56 1016.7
20260507100021 58 140 3.0 8.0 0.00 0.00 0.00 57 1016.7
20260507094523 59 177 3.0 10.0 0.00 0.00 0.00 57 1016.7
20260507093022 56 157 1.0 8.0 0.00 0.00 0.00 63 1016.7
20260507091523 56 83 2.0 8.0 0.00 0.00 0.00 70 1016.7
20260507090021 55 133 3.0 8.0 0.00 0.00 0.00 73 1016.8
20260507084520 53 120 2.0 3.0 0.00 0.00 0.00 76 1016.9
20260507083020 52 69 1.0 5.0 0.00 0.00 0.00 77 1017.0
20260507081526 50 67 0.0 4.0 0.00 0.00 0.00 79 1016.8
20260507080022 49 292 0.0 2.0 0.00 0.00 0.00 80 1017.0
20260507074523 47 234 0.0 3.0 0.00 0.00 0.00 81 1016.9
20260507073024 46 234 1.0 3.0 0.00 0.00 0.00 82 1016.8
20260507071525 45 40 0.0 3.0 0.00 0.00 0.00 83 1016.6
20260507070014 45 213 0.0 4.0 0.00 0.00 0.00 84 1016.5
20260507064514 44 74 1.0 6.0 0.00 0.00 0.00 84 1016.4
20260507063017 44 147 1.0 6.0 0.00 0.00 0.00 84 1016.3
20260507061523 43 45 1.0 6.0 0.00 0.00 0.00 85 1016.3
20260507060027 43 77 0.0 4.0 0.00 0.00 0.00 85 1016.3
20260507054511 42 107 1.0 4.0 0.00 0.00 0.00 85 1016.2
20260507053014 42 103 2.0 6.0 0.00 0.00 0.00 86 1016.2
20260507051522 42 92 1.0 6.0 0.00 0.00 0.00 85 1016.2
20260507050029 42 134 0.0 6.0 0.00 0.00 0.00 86 1016.1
20260507044526 42 122 1.0 6.0 0.00 0.00 0.00 85 1016.1
20260507043010 42 180 1.0 4.0 0.00 0.00 0.00 85 1016.1
20260507041518 42 83 1.0 6.0 0.00 0.00 0.00 85 1016.1
20260507040023 43 55 1.0 8.0 0.00 0.00 0.00 85 1016.1
20260507034525 43 132 1.0 7.0 0.00 0.00 0.00 85 1016.0
20260507033041 43 120 1.0 4.0 0.00 0.00 0.00 84 1015.9
20260507031521 43 103 1.0 6.0 0.00 0.00 0.00 85 1015.9
20260507030022 42 85 2.0 6.0 0.00 0.00 0.00 85 1015.9
20260507024525 42 78 1.0 7.0 0.00 0.00 0.00 84 1015.9
20260507023026 42 69 1.0 4.0 0.00 0.00 0.00 84 1015.9
20260507021526 42 80 2.0 4.0 0.00 0.00 0.00 84 1015.9
20260507020022 42 211 1.0 4.0 0.00 0.00 0.00 84 1016.0
20260507014527 42 82 1.0 9.0 0.00 0.00 0.00 84 1015.9
20260507013033 42 111 2.0 6.0 0.00 0.00 0.00 84 1015.8
20260507011534 42 61 1.0 6.0 0.00 0.00 0.00 83 1015.8
20260507010037 42 119 2.0 7.0 0.00 0.00 0.00 83 1015.9
20260507004520 42 107 1.0 6.0 0.00 0.00 0.00 82 1015.9